Regional Weather Roundup
Issued by NWS Albany, NY

Home | Current Version | Previous Version | Text Only | Print | Product List | Glossary On
Versions: 1 2 3 4 5 6 7 8 9 10 11 12 13 14 15 16 17 18 19 20 21 22 23 24 25 26 27
000
ASUS41 KALY 161510
RWRALY

NEW YORK STATE HOURLY WEATHER ROUNDUP
NATIONAL WEATHER SERVICE ALBANY NY
1100 AM EDT WED AUG 16 2017

NOTE: "FAIR" INDICATES FEW OR NO CLOUDS BELOW 12,000 FEET WITH NO
SIGNIFICANT WEATHER AND/OR NO OBSTRUCTIONS TO VISIBILITY.

NYZ032-033-038>043-046>054-057>066-NYZ062>081-082-084-161600-
EAST


CITY           SKY/WX    TMP DP  RH WIND       PRES   REMARKS
ALBANY         PTSUNNY   77  61  57 NE9       30.00R
GLENS FALLS    CLOUDY    71  61  70 E7        30.00R
POUGHKEEPSIE   SUNNY     77  62  59 N8        29.98S
NEWBURGH       SUNNY     77  66  69 VRB6      30.01S
MONTGOMERY     SUNNY     79  64  60 NW9       29.99S
WHITE PLAINS   MOSUNNY   79  65  62 NW8       29.97S
ISLIP          MOSUNNY   80  66  62 NW10      29.95S
NEW YORK CITY  MOSUNNY   80  64  58 N8        29.96S
CENTRAL PARK   SUNNY     79  65  62 CALM      29.99S
$$

NYZ005>009-017-018-044>046-055-056-161600-
CENTRAL


CITY           SKY/WX    TMP DP  RH WIND       PRES   REMARKS
FULTON         SUNNY     74  62  66 N5        30.06S
SYRACUSE       PTSUNNY   72  66  81 NW6       30.05S
ROME           MOSUNNY   71  61  70 NW7       30.05S
ELMIRA         MOSUNNY   74  64  71 E7        30.04F
BINGHAMTON     MOSUNNY   70  63  78 N9        30.07S
MONTICELLO     PTSUNNY   73  63  70 N12       30.06F
$$

NYZ026>034-041>043-087-161600-
NORTH


CITY           SKY/WX    TMP DP  RH WIND       PRES   REMARKS
WATERTOWN      MOSUNNY   69  55  60 N10       30.08S
FORT DRUM      NOT AVBL
OGDENSBURG     FAIR      69  52  55 NE5       30.09R
MASSENA        SUNNY     68  52  56 NE5       30.09R
SARANAC LAKE   SUNNY     63  53  70 VRB3      30.06S
PLATTSBURGH    MOSUNNY   68  48  48 NE7       30.04R
$$

NYZ001>004-010>016-019>021-085-161600-
WEST


CITY           SKY/WX    TMP DP  RH WIND       PRES   REMARKS
NIAGARA FALLS  PTSUNNY   73  62  68 CALM      30.08S
BUFFALO        MOSUNNY   72  63  73 N5        30.09R
DUNKIRK        SUNNY     72  65  78 N8        30.10R
JAMESTOWN      MOSUNNY   68  57  68 N6        30.13R
WELLSVILLE     SUNNY     73  58  59 MISG      30.13R
ROCHESTER      MOSUNNY   72  63  73 NE8       30.08S
PENN YAN       PTSUNNY   71  61  70 VRB3      30.08S
$$

             KEY
       WCI = WIND CHILL INDEX
       VSB = VISIBILITY
       HX  = HEAT INDEX
$$




USA.gov is the U.S. government's official web portal to all federal, state and local government web resources and services.